Hourly Data Report for September 16, 2017

All times are specified in Local Standard Time (LST). Add 1 hour to adjust for Daylight Saving Time where and when it is observed.

RESOLUTE BAY A
NUNAVUT

74°43'01.000" N
94°58'10.000" W
67.70 m
2403498
71924
YRB

Download Data

Hourly Data (September 2017)
Hourly Data Report for September 16, 2017
Temp Definition
°C
Dew Point Temp Definition
°C
Rel Hum Definition
%
Wind Dir Definition
10's deg

Wind Spd Definition
km/h
Visibility Definition
km
Stn Press Definition
kPa
Hmdx Definition


Wind Chill Definition


Weather Definition


TIME
00:00 Legend Double Dagger -9.2 -11.1 86 34 18 24.1 100.11   -16 Mainly Clear
01:00 Legend Double Dagger -8.8 -10.5 88 33 17 24.1 100.18   -16 LegendNANA
02:00 Legend Double Dagger -7.6 -9.6 86 33 33 24.1 100.22   -17 LegendNANA
03:00 Legend Double Dagger -8.2 -10.4 84 32 36 24.1 100.29   -18 Mostly Cloudy
04:00 Legend Double Dagger -8.7 -11.3 82 32 35 24.1 100.33   -18 LegendNANA
05:00 Legend Double Dagger -7.6 -10.2 82 31 28 24.1 100.36   -16 LegendNANA
06:00 Legend Double Dagger -7.1 -9.5 83 30 31 24.1 100.38   -16 Cloudy
07:00 Legend Double Dagger -6.9 -9.3 83 30 30 24.1 100.43   -15 LegendNANA
08:00 Legend Double Dagger -6.5 -8.7 85 30 30 24.1 100.47   -15 LegendNANA
09:00 Legend Double Dagger -6.3 -8.3 86 31 29 24.1 100.47   -15 Cloudy
10:00 Legend Double Dagger -6.2 -8.2 86 32 38 24.1 100.48   -15 LegendNANA
11:00 Legend Double Dagger -6.5 -8.6 85 32 32 24.1 100.55   -15 LegendNANA
12:00 Legend Double Dagger -6.5 -8.8 84 32 31 24.1 100.60   -15 Cloudy
13:00 Legend Double Dagger -6.4 -8.8 83 32 31 24.1 100.64   -15 LegendNANA
14:00 Legend Double Dagger -6.4 -8.6 84 33 21 24.1 100.65   -13 LegendNANA
15:00 Legend Double Dagger -5.9 -8.0 85 31 28 24.1 100.69   -14 Cloudy
16:00 Legend Double Dagger -6.2 -8.2 85 1 17 24.1 100.74   -12 LegendNANA
17:00 Legend Double Dagger -6.1 -8.1 86 33 21 24.1 100.70   -13 LegendNANA
18:00 Legend Double Dagger -6.2 -8.1 86 31 15 24.1 100.71   -12 Cloudy
19:00 Legend Double Dagger -6.2 -8.3 85 36 13 24.1 100.75   -12 LegendNANA
20:00 Legend Double Dagger -6.6 -8.5 87 35 7 24.1 100.72   -10 LegendNANA
21:00 Legend Double Dagger -6.1 -8.1 86 8 3 24.1 100.72   -8 Cloudy
22:00 Legend Double Dagger -6.0 -7.8 87 13 9 24.1 100.71   -10 LegendNANA
23:00 Legend Double Dagger -5.7 -7.5 87 15 6 24.1 100.67   -9 LegendNANA

Notes on Data Quality.

Legend

  • E = Estimated
  • M = Missing
  • NA = Not Available
  • ‡ = Partner data that is not subject to review by the National Climate Archives
Date modified: